Terminal Aerodrome Forecast
Issued by NWS Lubbock, TX

Home | Current Version | Previous Version | Text Only | Print | Product List | Glossary On
Versions: 1 2 3 4 5 6 7 8 9 10 11 12
000
FTUS44 KLUB 292320
TAFLBB
TAF
KLBB 292320Z 3000/3024 06009KT P6SM BKN070 OVC120
     FM301200 12009KT P6SM BKN040 OVC060=

USA.gov is the U.S. government's official web portal to all federal, state and local government web resources and services.